DW8885 Weather Reports


Display with metric or nautical units.
time (UTC)temp
F
wind
direction
speed
MPH
gust
MPH
rain 1hr
in
rain 24hr
in
rain mn
in
humidity
%
barometer
mb
20260509074554 54 157 4.0 12.0 0.00 0.00 0.00 84 1002.8
20260509073037 55 217 2.0 11.0 0.00 0.00 0.00 83 1003.0
20260509071554 55 219 1.0 7.0 0.00 0.00 0.00 82 1003.3
20260509070022 55 229 4.0 10.0 0.00 0.00 0.00 83 1003.4
20260509064552 55 179 2.0 9.0 0.00 0.00 0.00 83 1003.6
20260509063028 55 155 2.0 7.0 0.00 0.00 0.00 83 1003.5
20260509061557 55 212 2.0 9.0 0.00 0.00 0.00 82 1003.6
20260509060125 55 163 1.0 5.0 0.00 0.00 0.00 82 1003.9
20260509054605 55 196 3.0 10.0 0.00 0.00 0.00 83 1003.8
20260509053033 55 165 1.0 5.0 0.00 0.00 0.00 83 1004.0
20260509051501 55 166 0.0 7.0 0.00 0.00 0.00 83 1004.2
20260509050036 55 174 2.0 10.0 0.00 0.00 0.00 82 1004.2
20260509044602 54 149 4.0 8.0 0.00 0.00 0.00 82 1004.2
20260509043042 54 179 2.0 7.0 0.00 0.00 0.00 81 1004.2
20260509041502 55 156 0.0 6.0 0.00 0.00 0.00 78 1004.4
20260509040034 55 150 1.0 7.0 0.00 0.00 0.00 76 1004.5
20260509034508 54 181 4.0 8.0 0.00 0.00 0.00 73 1004.7
20260509033036 54 134 0.0 2.0 0.00 0.00 0.00 67 1004.7
20260509031508 54 132 0.0 0.0 0.00 0.00 0.00 67 1004.8
20260509030041 54 122 0.0 1.0 0.00 0.00 0.00 67 1005.0
20260509024508 54 165 0.0 1.0 0.00 0.00 0.00 67 1005.0
20260509023036 54 170 0.0 1.0 0.00 0.00 0.00 67 1005.1
20260509021516 55 49 0.0 0.0 0.00 0.00 0.00 66 1005.0
20260509020039 55 49 0.0 0.0 0.00 0.00 0.00 66 1005.2
20260509014509 55 49 0.0 0.0 0.00 0.00 0.00 64 1005.2
20260509013054 56 49 0.0 0.0 0.00 0.00 0.00 63 1005.1
20260509011508 57 49 0.0 0.0 0.00 0.00 0.00 60 1005.0
20260509010041 58 49 0.0 0.0 0.00 0.00 0.00 58 1005.1
20260509004526 59 49 0.0 0.0 0.00 0.00 0.00 55 1005.2
20260509003046 59 49 0.0 0.0 0.00 0.00 0.00 53 1005.1
20260509001512 60 49 0.0 0.0 0.00 0.00 0.00 50 1005.1
20260509000045 61 49 0.0 3.0 0.00 0.00 0.00 47 1005.2
20260508234514 62 56 0.0 3.0 0.00 0.00 0.00 43 1005.2
20260508233053 63 35 0.0 2.0 0.00 0.00 0.00 41 1005.3
20260508231516 62 317 1.0 3.0 0.00 0.00 0.00 37 1005.4
20260508230057 62 88 1.0 3.0 0.00 0.00 0.00 35 1005.4
20260508224518 63 104 1.0 4.0 0.00 0.01 0.00 34 1005.5
20260508223052 63 326 1.0 3.0 0.00 0.01 0.00 33 1005.7
20260508221520 63 22 1.0 4.0 0.00 0.01 0.00 33 1005.8
20260508220054 63 65 2.0 5.0 0.00 0.01 0.00 35 1005.9
20260508214522 62 309 1.0 6.0 0.00 0.01 0.00 40 1005.9
20260508213054 62 304 1.0 8.0 0.00 0.01 0.00 44 1005.9
20260508211530 62 11 2.0 5.0 0.00 0.01 0.00 42 1005.9
20260508210113 62 293 2.0 8.0 0.00 0.01 0.00 48 1006.1
20260508204526 62 322 2.0 9.0 0.00 0.01 0.00 51 1006.2
20260508203058 61 302 1.0 5.0 0.00 0.01 0.00 63 1006.4
20260508201528 61 295 3.0 8.0 0.00 0.01 0.00 66 1006.7
20260508200108 60 261 1.0 6.0 0.00 0.01 0.00 55 1006.8
20260508194530 61 269 2.0 6.0 0.00 0.01 0.00 58 1006.9
20260508193111 60 296 3.0 6.0 0.00 0.01 0.00 58 1007.1
20260508191533 60 311 2.0 7.0 0.00 0.01 0.00 63 1007.4
20260508190002 60 350 2.0 6.0 0.00 0.01 0.00 60 1007.6
20260508184554 59 264 2.0 5.0 0.00 0.01 0.00 70 1007.8
20260508183006 59 329 1.0 7.0 0.00 0.01 0.00 73 1007.9
20260508181549 57 318 1.0 5.0 0.00 0.01 0.00 74 1008.1
20260508180006 57 282 2.0 5.0 0.00 0.01 0.00 77 1008.3
20260508174538 57 257 2.0 6.0 0.00 0.01 0.00 76 1008.5
20260508173008 56 304 1.0 4.0 0.00 0.01 0.00 80 1008.7
20260508171540 55 299 2.0 6.0 0.00 0.01 0.00 80 1009.1
20260508170015 55 244 2.0 7.0 0.00 0.01 0.00 82 1009.1
20260508164555 54 262 3.0 6.0 0.00 0.01 0.00 80 1009.2
20260508163012 53 219 1.0 7.0 0.00 0.01 0.00 82 1009.4
20260508161549 54 257 2.0 7.0 0.00 0.01 0.00 83 1009.7
20260508160017 53 263 1.0 5.0 0.00 0.01 0.00 84 1009.8
20260508154546 53 277 3.0 8.0 0.00 0.01 0.00 83 1009.8
20260508153016 53 200 2.0 7.0 0.00 0.01 0.00 83 1009.7
20260508151556 52 288 2.0 8.0 0.00 0.01 0.00 85 1009.7
20260508150021 52 309 1.0 8.0 0.00 0.01 0.00 85 1009.6
20260508144619 53 240 3.0 5.0 0.00 0.01 0.00 83 1009.7
20260508143022 53 286 0.0 3.0 0.00 0.01 0.00 83 1009.7
20260508141602 51 180 0.0 3.0 0.00 0.01 0.00 87 1009.8
20260508140023 50 164 2.0 5.0 0.00 0.01 0.00 89 1009.8
20260508134559 49 161 2.0 7.0 0.00 0.01 0.00 89 1010.1
20260508133031 48 127 0.0 3.0 0.00 0.01 0.00 89 1010.0
20260508131556 47 163 0.0 3.0 0.00 0.01 0.00 90 1010.1
20260508130027 47 157 0.0 2.0 0.00 0.01 0.00 90 1010.1
20260508124559 46 157 0.0 3.0 0.00 0.01 0.00 90 1010.1
20260508123028 44 151 0.0 2.0 0.00 0.01 0.00 90 1010.2
20260508121606 43 151 0.0 0.0 0.00 0.01 0.00 90 1010.2
20260508120030 43 156 1.0 6.0 0.00 0.01 0.00 90 1010.2
20260508114602 42 121 0.0 1.0 0.00 0.01 0.00 90 1009.9
20260508113034 41 121 0.0 0.0 0.00 0.01 0.00 90 1009.8
20260508111505 41 121 0.0 0.0 0.00 0.01 0.00 89 1009.7
20260508110047 41 121 0.0 0.0 0.00 0.01 0.00 89 1009.6
20260508104504 41 121 0.0 0.0 0.00 0.01 0.00 89 1009.5
20260508103036 41 121 0.0 2.0 0.00 0.01 0.00 89 1009.4
20260508101506 41 56 0.0 1.0 0.00 0.01 0.00 89 1009.6
20260508100038 41 56 0.0 0.0 0.00 0.01 0.00 89 1009.5
20260508094508 41 56 0.0 0.0 0.00 0.01 0.00 89 1009.5
20260508093040 41 56 0.0 0.0 0.00 0.01 0.00 89 1009.5
20260508091510 42 56 0.0 0.0 0.00 0.01 0.00 88 1009.6
20260508090059 42 56 0.0 0.0 0.00 0.01 0.00 89 1009.7
20260508084512 42 56 0.0 1.0 0.00 0.01 0.00 88 1009.6
20260508083043 42 56 0.0 0.0 0.00 0.01 0.00 88 1009.7
20260508081514 43 56 0.0 0.0 0.00 0.01 0.00 88 1009.9
20260508080044 43 56 0.0 0.0 0.00 0.01 0.00 88 1009.9